www.pogodaiklimat.ru

Погода и климат >> Архив погоды >> Россия >> Якутия >> Батамай


ПОГОДА в Батамае

  • Прогноз погоды в Батамае
  • Монитор погоды в Батамае
  • Климат города

АРХИВ ПОГОДЫ в Батамае

Время (UTC), дата Ветер
(напр.,м/с)
 
Видим.   Явления Облачность Т
(С)
Тd
(С)
f
(%)
Тe
(С)
Тes
(С)
Комфортность P
(гПа)
Po
(гПа)
Тmin
(С)
Tmax
(С)
R
(мм)
R24
(мм)
S
(см)
06 15.10 В 2 50 км 10/4 600 м
[Sc As op]
-5.0 -6.7 88 -9 -9 1032.0 1021.6
09 15.10 С 2 50 км 10/4 600 м
[Sc As op]
-5.0 -6.3 91 -9 -9 1031.9 1021.5
12 15.10 С 1 50 км 10/5 600 м
[Sc As op]
-5.1 -6.5 90 -8 -8 1031.9 1021.5 -4.8
15 15.10 СВ 1 50 км 10/5 600 м
[Sc As op]
-5.2 -6.6 90 -8 -8 1031.9 1021.5
18 15.10 ЮВ 1 50 км 10/5 600 м
[Sc As op]
-4.8 -6.5 88 -7 -7 1031.2 1020.8
21 15.10 СВ 1 50 км 10/0
[Ac As]
-5.6 -7.0 90 -8 -8 1030.6 1020.2
00 16.10 СВ 1 50 км 10/3 600 м
[Cb cap Ac As]
-5.8 -8.0 84 -8 -8 1030.1 1019.7 -5.8 2
03 16.10 В 2 50 км 10/3 600 м
[Sc As op]
-5.4 -6.1 95 -10 -10 1028.4 1018.0
06 16.10 В 2 50 км 10/5 600 м
[Sc As op]
-5.3 -7.4 85 -10 -9 1026.8 1016.4
09 16.10 В 3 50 км 10/5 600 м
[Sc As op]
-6.0 -7.5 89 -12 -12 1026.6 1016.2
12 16.10 СВ 3 50 км 10/5 600 м
[Sc As op]
-6.2 -7.4 91 -12 -12 1025.8 1015.4 -5.3
15 16.10 СВ 3 50 км 10/3 600 м
[Sc As op]
-6.3 -7.7 90 -12 -12 1025.6 1015.2
18 16.10 СВ 2 50 км 10/3 600 м
[Sc As op]
-6.2 -7.4 91 -11 -11 1024.1 1013.8
21 16.10 В 3 50 км 10/0
[As op]
-6.0 -7.1 92 -12 -12 1023.2 1012.9
00 17.10 В 1 50 км 10/0
[As op]
-5.8 -7.3 89 -8 -8 1023.0 1012.7 -6.3 2
03 17.10 ЮВ 2 20 км слабый снег 10/0
[As op]
-5.6 -6.7 92 -10 -10 1022.5 1012.2
06 17.10 В 1 20 км слабый снег 10/0
[As op]
-5.4 -6.8 90 -8 -8 1021.8 1011.5
09 17.10 СВ 1 20 км слабый снег 10/0
[As op]
-5.7 -6.4 95 -8 -8 1021.6 1011.3
12 17.10 СВ 1 20 км слабый снег 10/0
[Ac trans Cs]
-6.4 -7.2 94 -9 -9 1021.2 1010.9 -5.4 0.2
15 17.10 С 1 50 км {снег} 10/0
[Ac trans Cs]
-6.6 -7.4 94 -9 -9 1020.3 1010.0
18 17.10 З 1 50 км {снег} 5/0
[Ci fib]
-8.8 -9.5 95 -11 -11 1020.0 1009.5
21 17.10 С 1 50 км 5/3 300 м
[St Ci fib]
-8.9 -10.0 92 -11 -11 1019.8 1009.3
00 18.10 З 2 50 км 9/9 300 м
[St]
-6.7 -7.6 93 -11 -11 1019.5 1009.2 -12.0 0.0 3
03 18.10 З 3 50 км 8/8 300 м
[St]
-4.7 -6.0 91 -10 -10 1019.3 1009.0
06 18.10 ЮЗ 3 50 км 3/1 300 м
[St Ci fib]
-2.4 -4.6 85 -8 -7 1018.4 1008.3
09 18.10 СЗ 2 50 км 10/10 300 м
[St]
-4.8 -5.8 93 -9 -9 1019.0 1008.7
12 18.10 СЗ 2 50 км 8/4 300 м
[St Ci fib]
-6.3 -6.7 97 -11 -11 1019.3 1009.0 -2.2
15 18.10 СЗ 1 50 км 6/4 300 м
[St Ci fib]
-7.3 -7.5 98 -10 -10 1018.6 1008.3
18 18.10 С 1 50 км 9/5 300 м
[St Ci fib]
-9.4 -10.1 95 -12 -12 1019.0 1008.5
21 18.10 СВ 1 50 км 10/10 300 м
[St]
-10.4 -11.0 95 -13 -13 1018.4 1007.9
00 19.10 В 2 50 км 10/5 300 м
[St Cs]
-7.7 -8.3 95 -12 -12 1017.7 1007.2 -11.9 3
03 19.10 В 3 10 км слабый снег 10/5 300 м
[St Cs]
-5.4 -5.8 97 -11 -11 1016.6 1006.3
06 19.10 В 3 10 км слабый снег 10/4 600 м
[Sc As op]
-4.6 -6.2 89 -10 -10 1015.6 1005.3
09 19.10 В 2 10 км слабый снег 10/0
[As op]
-4.7 -6.0 91 -9 -9 1015.6 1005.3
12 19.10 СВ 2 10 км слабый снег 10/0
[As op]
-5.4 -6.8 90 -10 -10 1016.2 1005.9 -4.3 1
15 19.10 СВ 2 10 км слабый снег 10/0
[As op]
-6.0 -7.5 89 -10 -10 1016.7 1006.4
18 19.10 В 2 20 км слабый снег 10/0
[As op]
-6.9 -9.0 85 -11 -11 1017.8 1007.5
21 19.10 СВ 1 20 км слабый снег 10/0
[As op]
-7.1 -9.2 85 -9 -9 1018.9 1008.6
00 20.10 штиль 0 50 км {снег} 10/0
[Ac As]
-7.2 -9.3 85 -8 -8 1019.6 1009.3 -7.2 0.6 3
03 20.10 В 1 50 км 10/0
[Ac As]
-5.6 -7.8 84 -8 -7 1020.5 1010.2
06 20.10 ЮЗ 1 50 км 10/0
[As op]
-4.6 -7.0 83 -7 -7 1020.7 1010.4
09 20.10 ЮЗ 2 50 км 10/5 600 м
[Sc As op]
-4.0 -6.6 82 -8 -8 1021.3 1011.0
12 20.10 З 2 50 км 10/3 600 м
[Sc As op]
-4.8 -6.8 86 -9 -9 1021.6 1011.3 -4.0
15 20.10 СЗ 1 50 км 10/3 600 м
[Sc As op]
-5.2 -6.6 90 -8 -8 1022.3 1012.0
18 20.10 С 1 20 км слабый снег 10/0
[As op]
-5.8 -7.3 89 -8 -8 1022.7 1012.4
21 20.10 СВ 1 20 км слабый снег 10/0
[As op]
-6.3 -7.5 91 -9 -9 1022.5 1012.2
00 21.10 СВ 1 10 км слабый снег 10/0
[As op]
-6.2 -7.4 91 -9 -9 1022.7 1012.4 -6.3 0.2 4
03 21.10 СВ 1 10 км слабый снег 10/0
[As op]
-4.6 -6.6 86 -7 -7 1022.6 1012.3
06 21.10 СВ 2 50 км в посл. час снег 10/0
[As op]
-3.8 -6.0 85 -8 -8 1022.4 1012.1
09 21.10 СВ 1 50 км 10/0
[Ac As]
-5.4 -7.6 84 -8 -8 1023.1 1012.8
12 21.10 СВ 2 10 км слабый снег 10/0
[As op]
-5.6 -7.0 90 -10 -10 1023.1 1012.8 -3.8 0.6
15 21.10 СВ 2 10 км слабый снег 10/0
[As op]
-5.8 -7.3 89 -10 -10 1022.7 1012.4
18 21.10 В 2 10 км слабый снег 10/0
[As op]
-6.2 -7.4 91 -11 -11 1022.2 1011.9
21 21.10 В 1 10 км слабый снег 10/0
[As op]
-6.4 -7.2 94 -9 -9 1022.5 1012.2
00 22.10 СВ 1 50 км {ливн. осадки} 10/10 300 м
[St]
-6.4 -7.2 94 -9 -9 1022.5 1012.2 -6.7 0.8 7
03 22.10 В 2 20 км слабый снег 10/3 300 м
[St As op]
-5.3 -6.7 90 -10 -9 1022.3 1012.0

 

Местоположение метеостанции Батамай (Якутия, Россия): широта 63.52 долгота 129.40 высота над уровнем моря 79 м.

В архиве по умолчанию представлена погода в Батамае за последнюю неделю. Архивные данные за месяц целиком и за предыдущие месяцы, начиная с января 2011 года, Вы можете получить, выбрав интересующий диапазон дат из раскрывающегося списка и нажав кнопку "Ввод!".


*Определитесь, кто Вы:
робот инопланетянин человек

Внимание! Время в таблицах - всемирное. Для получения местного времени необходимо прибавить поправку, которая в Батамае равна 9 ч.

Смотрите также архив погоды в соседних городах и на ближайших метеорологических станциях:

Погода в Сеген-Кюели (Якутия, Россия) (69 км)
Погода в Намцах (Якутия, Россия) (90 км)
Погода в Сангаре (Якутия, Россия) (109 км)
Погода в Верхоянском Перевозе (Якутия, Россия) (131 км)
Погода в Якутске (Якутия, Россия) (169 км)
Погода в Сого-Хае (Якутия, Россия) (169 км)
Погода в Бердигестяхе (Якутия, Россия) (185 км)
Погода в Себян-Кюеле (Якутия, Россия) (200 км)
Погода в Покровске (Якутия, Россия) (227 км)
Погода в Хатырык-Хомо (Якутия, Россия) (231 км)

Пояснения к столбцам:

Ветер - указаны скорость ветра в м/с - средняя за 10 мин, порывы в срок и между сроками (в фигурных скобках) и направление, откуда дует ветер: С - северный, СВ - северо-восточный, В - восточный, ЮВ - юго-восточный, Ю - южный, ЮЗ - юго-западный, З - западный, СЗ - северо-западный.
Видимость - горизонтальная дальность видимости в метрах или километрах. При видимости от 1 до 10 км при отсутствии осадков обычно наблюдается дымка, при ухудшении видимости до 1 км и менее - туман. В сухую погоду видимость может ухудшаться дымом, пылью или мглою.
Явления - указаны атмосферные явления, наблюдавшиеся в срок или в последний час перед сроком; фигурными скобками обозначены явления, наблюдавшиеся между сроками (за 1-3 часа до срока); квадратными скобками обозначены град или гололедные отложения с указанием их диаметра в мм.
Облачность - указаны через наклонную черту общая и нижняя облачность в баллах и высота нижней границы облаков в метрах; квадратными скобками обозначены формы облаков: Ci - перистые, Cs - перисто-слоистые, Cc - перисто-кучевые, Ac - высококучевые, As - высокослоистые, Sc - слоисто-кучевые, Ns - слоисто-дождевые, Cu - кучевые, Cb - кучево-дождевые. Подробнее классификацию облаков см. в Атласе облаков (PDF).
T - Температура воздуха - температура, измеренная на высоте 2 м над землей.
Td - Температура точки росы - температура, при понижении до которой содержащийся в воздухе водяной пар достигнет насыщения.
f - Относительная влажность воздуха - влажноcть воздуха, измеренная на высоте 2 м над землей.
Te - Эффективная температура - температура, которую ощущает одетый по сезону человек в тени. Характеристика душности погоды. При расчете учитывается влияние влажности воздуха и скорости ветра на теплоощущения человека.
Tes - Эффективная температура на солнце - температура, которую ощущает человек, с поправкой на солнечный нагрев. Характеристика знойности погоды. Зависит от высоты солнца над горизонтом, облачности и скорости ветра. Ночью, в пасмурную погоду, а также при ветре 12 м/с и более поправка равна нулю.
P - Атмосферное давление - приведенное к уровню моря атмосферное давление.
Po - Атмосферное давление - измеренное на уровне метеостанции атмосферное давление.
Tmin - Минимальная температура - минимум температуры воздуха на высоте 2 м над землей.
Tmax - Максимальная температура - максимум температуры воздуха на высоте 2 м над землей.
R - Количество осадков - Количество выпавших осадков за период времени, мм. При наведении курсора мыши на число - период времени, за который выпало указанное количество осадков.
R24 - Количество осадков - Количество выпавших осадков за 24 часа, мм.
S - Снежный покров - Высота снежного покрова, см. При наведении курсора мыши на число - состояние снежного покрова и степень покрытия местности в баллах.